Погода в Ичжэне

Китай     32°16′29″N   119°10′26″E
темп.,
°C
ветер,
м/с
пор.,
м/с
влажн.,
%
обл.,
%
осадки,
мм/ч
давл.,
гПа
погр.,
м
18 мая, вт
вт1823:00+17всв2269100 0.0 101220
02:00+17ю2272100 0.0 101218
05:00+16ююз11766 0.0 101210
08:00+19зсз1169100 0.0 1014314
11:00+22ююв2359100 0.0 10121066
14:00+24ююв2353100 0.0 10111619
17:00+22ююв2472100 0.1 1010194
20:00+20юв2377100 0.1 101142
19 мая, ср
ср1923:00+18юв3488100 0.0 101180
02:00+17юв229298 0.0 101124
05:00+17юв2594100 0.0 1011122
08:00+19юв4682100 0.0 1011395
11:00+22юв4566100 0.0 1011707
14:00+20юв3677100 0.0 1009216
17:00+18вюв1390100 0.4 1008168
20:00+17в3795100 2.0 1008333
20 мая, чт
чт2023:00+17всв3797100 0.9 1007435
02:00+16св4698100 0.9 1005346
05:00+16св3497100 0.1 1005282
08:00+16ссв2396100 0.1 1007389
11:00+17с2393100 0.1 1007463
14:00+18ссз3487100 0.1 1007646
17:00+18ссв2384100 0.1 1006547
20:00+17с2287100 0.1 100848
21 мая, пт
пт2123:00+15св2393100 0.0 100977
02:00+14всв1195100 0.0 100811
05:00+14в229531 0.0 100719
08:00+18всв218126 0.0 1009332
11:00+24вюв21676 0.0 1009824
14:00+27юв215723 0.0 10071384
17:00+27вюв1158100 0.0 10071259
20:00+21юв3575100 0.0 1008105
22 мая, сб
сб2223:00+20в3481100 0.0 100982
02:00+19вюв388699 0.0 1008199
05:00+18вюв39946 0.0 1009270
08:00+21юв5878100 0.0 1009339
11:00+23юв4873100 0.0 1009491
14:00+23юв61073100 0.0 1007571
17:00+21юв41081100 0.0 1007464
20:00+20юв3984100 0.0 1008373